Location: Morosaglia
(42.4360°N, 9.3069°E)
Time: 02:24:52
(UTC+00:00)

CZ-4B R/B - Pass Details

Date: 07 June 2020
Orbit: 703 x 802 km, 98.8° (Epoch: 05 July)

Event Time Altitude Azimuth Distance (km) Brightness Sun altitude
Rises 00:54:46 0° 18° (NNE) 3,304 8.3 -21.3°
Reaches altitude 10° 00:57:09 10° 24° (NNE) 2,377 7.2 -21.2°
Maximum altitude 01:02:18 53° 100° (E) 985 4.1 -20.8°
Enters shadow 01:04:35 31° 161° (SSE) 1,374 4.4 -20.6°
